TimeCST,TemperatureF,Dew PointF,Humidity,Sea Level PressureIn,VisibilityMPH,Wind Direction,Wind SpeedMPH,Gust SpeedMPH,PrecipitationIn,Events,Conditions,WindDirDegrees,DateUTC
12:15 AM,17.6,10.4,73,30.04,10.0,South,12.7,-,N/A,,Clear,180,2013-01-16 06:15:00
12:35 AM,19.4,10.4,68,30.03,10.0,South,11.5,-,N/A,,Clear,190,2013-01-16 06:35:00
12:55 AM,17.6,10.4,73,30.02,10.0,South,11.5,-,N/A,,Clear,190,2013-01-16 06:55:00
1:15 AM,17.6,10.4,73,30.02,10.0,SSW,11.5,-,N/A,,Clear,200,2013-01-16 07:15:00
1:35 AM,17.6,10.4,73,30.00,10.0,SSW,13.8,-,N/A,,Clear,200,2013-01-16 07:35:00
1:55 AM,17.6,10.4,73,30.00,10.0,SSW,13.8,-,N/A,,Clear,200,2013-01-16 07:55:00
2:15 AM,17.6,10.4,73,29.99,10.0,SSW,12.7,-,N/A,,Clear,210,2013-01-16 08:15:00
2:35 AM,17.6,10.4,73,29.98,10.0,SSW,11.5,-,N/A,,Clear,200,2013-01-16 08:35:00
2:55 AM,17.6,8.6,68,29.97,10.0,South,12.7,-,N/A,,Clear,190,2013-01-16 08:55:00
3:15 AM,17.6,8.6,68,29.96,10.0,South,12.7,-,N/A,,Clear,190,2013-01-16 09:15:00
3:35 AM,17.6,8.6,68,29.95,10.0,South,12.7,-,N/A,,Clear,190,2013-01-16 09:35:00
3:55 AM,17.6,8.6,68,29.93,10.0,South,13.8,-,N/A,,Clear,190,2013-01-16 09:55:00
4:15 AM,17.6,8.6,68,29.92,10.0,South,15.0,-,N/A,,Clear,190,2013-01-16 10:15:00
4:35 AM,17.6,8.6,68,29.91,10.0,South,13.8,-,N/A,,Clear,190,2013-01-16 10:35:00
4:55 AM,17.6,8.6,68,29.90,10.0,South,13.8,-,N/A,,Clear,190,2013-01-16 10:55:00
5:15 AM,17.6,8.6,68,29.90,10.0,SSW,12.7,-,N/A,,Clear,200,2013-01-16 11:15:00
5:35 AM,17.6,8.6,68,29.88,10.0,South,12.7,-,N/A,,Clear,190,2013-01-16 11:35:00
5:55 AM,17.6,8.6,68,29.86,10.0,South,13.8,-,N/A,,Clear,190,2013-01-16 11:55:00
6:35 AM,19.4,8.6,63,29.84,10.0,South,16.1,23.0,N/A,,Clear,190,2013-01-16 12:35:00
6:55 AM,19.4,8.6,63,29.85,10.0,SSW,17.3,21.9,N/A,,Clear,200,2013-01-16 12:55:00
7:15 AM,19.4,8.6,63,29.84,10.0,South,17.3,-,N/A,,Clear,190,2013-01-16 13:15:00
7:35 AM,21.2,8.6,58,29.84,10.0,SSW,20.7,26.5,N/A,,Mostly Cloudy,200,2013-01-16 13:35:00
7:55 AM,21.2,10.4,63,29.82,10.0,SSW,20.7,25.3,N/A,,Overcast,200,2013-01-16 13:55:00
8:15 AM,21.2,10.4,63,29.82,10.0,SSW,18.4,24.2,N/A,,Mostly Cloudy,200,2013-01-16 14:15:00
8:35 AM,21.2,10.4,63,29.82,10.0,SSW,19.6,23.0,N/A,,Scattered Clouds,200,2013-01-16 14:35:00
8:55 AM,23.0,12.2,63,29.81,10.0,SSW,18.4,-,N/A,,Overcast,210,2013-01-16 14:55:00
9:15 AM,23.0,12.2,63,29.80,10.0,SSW,17.3,-,N/A,,Overcast,210,2013-01-16 15:15:00
9:35 AM,24.8,12.2,59,29.78,10.0,SSW,17.3,24.2,N/A,,Overcast,200,2013-01-16 15:35:00
9:55 AM,26.6,14.0,59,29.77,10.0,SSW,19.6,-,N/A,,Overcast,200,2013-01-16 15:55:00
10:15 AM,26.6,14.0,59,29.76,10.0,SSW,19.6,25.3,N/A,,Overcast,200,2013-01-16 16:15:00
10:35 AM,26.6,14.0,59,29.77,10.0,SSW,17.3,23.0,N/A,,Overcast,210,2013-01-16 16:35:00
10:55 AM,28.4,14.0,55,29.76,10.0,SW,18.4,-,N/A,,Overcast,220,2013-01-16 16:55:00
11:15 AM,28.4,15.8,59,29.75,10.0,SW,20.7,24.2,N/A,,Overcast,230,2013-01-16 17:15:00
11:35 AM,30.2,17.6,60,29.75,10.0,SW,20.7,26.5,N/A,,Overcast,230,2013-01-16 17:35:00
11:55 AM,30.2,17.6,60,29.74,10.0,WSW,21.9,27.6,N/A,,Overcast,240,2013-01-16 17:55:00
12:15 PM,30.2,19.4,64,29.74,10.0,SW,18.4,25.3,N/A,,Overcast,230,2013-01-16 18:15:00
12:35 PM,30.2,21.2,69,29.74,7.0,WSW,20.7,27.6,N/A,Snow,Light Snow,250,2013-01-16 18:35:00
12:55 PM,30.2,23.0,75,29.75,10.0,WSW,17.3,24.2,N/A,,Overcast,240,2013-01-16 18:55:00
1:15 PM,30.2,23.0,75,29.75,10.0,WSW,20.7,-,N/A,,Overcast,240,2013-01-16 19:15:00
1:35 PM,30.2,23.0,75,29.75,10.0,WSW,20.7,25.3,N/A,,Overcast,240,2013-01-16 19:35:00
2:15 PM,30.2,23.0,75,29.77,10.0,WSW,15.0,-,N/A,,Overcast,240,2013-01-16 20:15:00
2:35 PM,32.0,23.0,69,29.77,10.0,WSW,16.1,-,N/A,,Overcast,240,2013-01-16 20:35:00
2:55 PM,32.0,23.0,69,29.77,10.0,WSW,15.0,-,N/A,,Overcast,240,2013-01-16 20:55:00
3:15 PM,32.0,23.0,69,29.78,10.0,WSW,15.0,-,N/A,,Overcast,240,2013-01-16 21:15:00
3:35 PM,32.0,23.0,69,29.79,10.0,WSW,11.5,-,N/A,,Overcast,240,2013-01-16 21:35:00
3:55 PM,32.0,24.8,75,29.81,10.0,WSW,13.8,-,N/A,,Overcast,240,2013-01-16 21:55:00
4:15 PM,32.0,24.8,75,29.83,10.0,WSW,10.4,-,N/A,,Overcast,250,2013-01-16 22:15:00
4:35 PM,32.0,24.8,75,29.84,10.0,WSW,9.2,-,N/A,,Overcast,240,2013-01-16 22:35:00
4:55 PM,32.0,26.6,80,29.85,10.0,WSW,8.1,-,N/A,,Overcast,250,2013-01-16 22:55:00
5:15 PM,32.0,26.6,80,29.86,10.0,WSW,6.9,-,N/A,,Overcast,250,2013-01-16 23:15:00
5:55 PM,32.0,26.6,80,29.88,10.0,WSW,8.1,-,N/A,,Overcast,240,2013-01-16 23:55:00
6:15 PM,32.0,26.6,80,29.89,10.0,WSW,8.1,-,N/A,,Overcast,240,2013-01-17 00:15:00
6:35 PM,32.0,26.6,80,29.90,10.0,WSW,6.9,-,N/A,,Overcast,240,2013-01-17 00:35:00
6:55 PM,30.2,26.6,86,29.91,10.0,WSW,6.9,-,N/A,,Overcast,250,2013-01-17 00:55:00
7:15 PM,30.2,26.6,86,29.92,10.0,WSW,5.8,-,N/A,,Mostly Cloudy,250,2013-01-17 01:15:00
7:35 PM,30.2,26.6,86,29.93,10.0,WSW,4.6,-,N/A,,Scattered Clouds,240,2013-01-17 01:35:00
7:55 PM,30.2,26.6,86,29.94,10.0,Calm,Calm,-,N/A,,Mostly Cloudy,0,2013-01-17 01:55:00
8:15 PM,30.2,26.6,86,29.95,10.0,West,3.5,-,N/A,,Mostly Cloudy,280,2013-01-17 02:15:00
8:35 PM,30.2,26.6,86,29.95,10.0,WNW,4.6,-,N/A,,Scattered Clouds,290,2013-01-17 02:35:00
8:55 PM,30.2,26.6,86,29.97,10.0,WNW,4.6,-,N/A,,Mostly Cloudy,290,2013-01-17 02:55:00
9:15 PM,32.0,28.4,87,29.97,10.0,WNW,5.8,-,N/A,,Overcast,290,2013-01-17 03:15:00
9:35 PM,32.0,26.6,80,29.99,10.0,West,6.9,-,N/A,,Overcast,280,2013-01-17 03:35:00
9:55 PM,32.0,26.6,80,30.01,10.0,WNW,12.7,18.4,N/A,,Overcast,290,2013-01-17 03:55:00
10:15 PM,30.2,21.2,69,30.02,10.0,WNW,11.5,-,N/A,,Scattered Clouds,300,2013-01-17 04:15:00
10:35 PM,28.4,14.0,55,30.02,10.0,NW,9.2,18.4,N/A,,Clear,310,2013-01-17 04:35:00
10:55 PM,28.4,14.0,55,30.04,10.0,NW,8.1,-,N/A,,Clear,310,2013-01-17 04:55:00
11:15 PM,28.4,14.0,55,30.04,10.0,NW,6.9,-,N/A,,Clear,310,2013-01-17 05:15:00
11:35 PM,26.6,14.0,59,30.05,10.0,WNW,5.8,-,N/A,,Clear,300,2013-01-17 05:35:00
11:55 PM,26.6,12.2,55,30.05,10.0,WNW,8.1,-,N/A,,Clear,300,2013-01-17 05:55:00